Location: Peebles
(55.6412°N, 3.1714°W)
Time: 15:37:03
(UTC+01:00)

RS-15 - Pass Details

Date: 06 December 2023
Orbit: 1896 x 2148 km, 64.8° (Epoch: 25 June)

Event Time Altitude Azimuth Distance (km) Brightness Sun altitude
Rises 20:42:53 0° 208° (SSW) 5,645 10.5 -40.5°
Reaches altitude 10° 20:46:21 10° 206° (SSW) 4,631 10.0 -41.0°
Enters shadow 20:52:19 35° 198° (SSW) 3,027 8.8 -41.8°
